This is the latest recevied weather packets stored in our database for station/object OE9GTV. If no packets are shown the sender has not sent any weather packets the latest 10 day(s).
| Time | Temp. | Humidity | Pressure | Rain* | Wind** | Luminosity | Snow |
|---|---|---|---|---|---|---|---|
| 1777931476 | 13.33° C | 59% | 1008.9 hPa | 0 mm | - | 0 W/m² | - |
| 1777930876 | 13.33° C | 58% | 1009 hPa | 0 mm | - | 0 W/m² | - |
| 1777930276 | 13.89° C | 57% | 1009 hPa | 0 mm | - | 0 W/m² | - |
| 1777929675 | 13.89° C | 56% | 1008.9 hPa | 0 mm | - | 0 W/m² | - |
| 1777929075 | 14.44° C | 56% | 1008.8 hPa | 0 mm | - | 0 W/m² | - |
| 1777928476 | 14.44° C | 55% | 1008.8 hPa | 0 mm | - | 0 W/m² | - |
| 1777927875 | 14.44° C | 54% | 1008.8 hPa | 0 mm | - | 0 W/m² | - |
| 1777927276 | 15° C | 53% | 1008.7 hPa | 0 mm | - | 0 W/m² | - |
| 1777926675 | 15.56° C | 52% | 1008.7 hPa | 0 mm | - | 0 W/m² | - |
| 1777926075 | 15.56° C | 51% | 1008.5 hPa | 0 mm | - | 0 W/m² | - |
| 1777925475 | 16.11° C | 49% | 1008.5 hPa | 0 mm | - | 0 W/m² | - |
| 1777924875 | 16.11° C | 48% | 1008.3 hPa | 0 mm | - | 0 W/m² | - |
| 1777924275 | 16.67° C | 47% | 1008.3 hPa | 0 mm | - | 0 W/m² | - |
| 1777923675 | 17.22° C | 45% | 1008.3 hPa | 0 mm | - | 0 W/m² | - |
| 1777923075 | 17.78° C | 43% | 1008.2 hPa | 0 mm | - | 0 W/m² | - |
| 1777922475 | 18.33° C | 42% | 1008.2 hPa | 0 mm | - | 0 W/m² | - |
| 1777921875 | 18.89° C | 40% | 1008.3 hPa | 0 mm | - | 0 W/m² | - |
| 1777921275 | 19.44° C | 38% | 1008.2 hPa | 0 mm | - | 0 W/m² | - |
| 1777920675 | 20° C | 36% | 1008.2 hPa | 0 mm | - | 0 W/m² | - |
| 1777920074 | 20.56° C | 35% | 1008.2 hPa | 0 mm | - | 0 W/m² | - |
| 1777919474 | 20.56° C | 34% | 1008.3 hPa | 0 mm | - | 0 W/m² | - |
| 1777918874 | 20.56° C | 32% | 1008.4 hPa | 0 mm | - | 0 W/m² | - |
| 1777918274 | 21.11° C | 32% | 1008.4 hPa | 0 mm | - | 0 W/m² | - |
| 1777917674 | 21.11° C | 32% | 1008.4 hPa | 0 mm | - | 0 W/m² | - |
| 1777917074 | 21.11° C | 31% | 1008.5 hPa | 0 mm | - | 0 W/m² | - |
* Rain latest hour (hover to see other rain measurements)
** Current wind speed in m/s (hover to see current wind gust speed)